Location: Mohawk View
(42.7837°N, 73.7885°W)
Time: 16:59:57
(UTC+00:00)

USA 81 - Pass Details

Date: 17 June 2021
Orbit: 784 x 789 km, 85.0° (Epoch: 12 June)

Event Time Altitude Azimuth Distance (km) Brightness Sun altitude
Rises 01:22:27 0° 1° (N) 3,285 7.9 -7.6°
Reaches altitude 10° 01:24:55 10° 7° (N) 2,352 7.0 -7.9°
Maximum altitude 01:29:59 46° 81° (E) 1,047 4.5 -8.6°
Drops below altitude 10° 01:35:01 10° 154° (SSE) 2,336 5.9 -9.3°
Enters shadow 01:35:03 10° 154° (SSE) 2,350 5.9 -9.3°
